Presure
95 98 98 104 91 91 95 95 90 100 94 89 91 109 107 108 109 97 91 90 88 89 96 82 88 96 82 94 89 96 89 85 132
103 102 102 93 101 100 95 95 101 103 100 97 97 102 100 101 103 102 98 178 107 106 152 105 116 96 115 148 110 85 178 86 128
147 100 100 99 98 96 90 95 94 111 145 99 121 152 97 95 103 99 122 105 167 99 95 104 160 107 105 200 148 205 151 129 177
149 95 95 135 95 103 95 96 96 89 121 108 105 118 158 104 98 92 94 101 125 172 109 103 175 180 183 110 207 206 121 142 103
109 123 151 112 110 123 103 149 99 101 110 103 94 125 170 98 102 100 80 83 93 89 74 107 78 77 83 84 87 89 87 80 76
138 108 118 159 165 120 120 120 95 160 131 94 154 130 135 98 158 111 173 90 76 193 189 89 81 84 89 92 97 92 76 94 154
139 155 106 103 96 106 116 123 99 119 152 172 90 123 175 104 107 161 104 193 199 194 83 87 95 96 96 154 193 184 180 179 171
186 162 158 97 103 133 139 124 157 168 125 152 160 173 111 186 206 211 203 203 200 91 90 95 95 195 195 192 175 173 183 160 271
148 154 153 120 127 108 109 110 136 102 188 187 122 89 189 208 218 200 205 203 107 91 203 96 191 194 181 177 174 193 199 232 296
151 144 152 161 168 192 203 135 139 165 187 176 175 206 206 215 138 121 86 192 103 98 91 185 191 172 169 189 194 285 275 292 257
161 132 151 139 134 124 135 112 142 184 168 195 172 208 212 201 88 127 195 94 120 128 149 189 175 161 179 204 227 274 256 271 267
174 160 189 112 192 195 189 186 197 103 200 205 206 205 167 98 86 105 92 183 117 187 182 183 175 173 187 238 271 251 238 234 258
195 217 199 191 203 201 207 209 203 200 73 190 108 202 112 90 97 91 186 110 186 183 190 156 175 178 127 283 284 275 247 234 264
224 224 220 220 216 210 161 189 196 146 159 81 89 88 98 91 143 189 143 182 183 186 160 183 194 206 276 293 177 269 258 245 247
193 190 194 194 187 120 115 115 79 82 89 89 93 92 98 193 184 185 179 180 183 166 198 192 180 251 259 240 227 272 266 257 249
184 180 183 179 83 83 188 83 90 89 90 97 201 103 188 184 184 175 180 181 174 171 180 201 228 238 245 233 223 217 219 259 259
82 108 173 152 84 82 162 91 189 94 95 182 184 173 176 174 187 181 185 179 173 167 186 207 219 240 229 221 217 217 214 210 251
169 165 82 84 174 160 159 134 137 91 179 180 179 172 172 172 184 186 178 171 172 181 203 204 250 229 224 217 209 209 204 205 206
166 167 84 85 96 91 91 97 174 176 173 173 174 172 171 176 181 179 169 171 168 203 210 182 230 208 200 199 197 192 204 206 204
90 89 89 188 186 178 148 179 177 174 176 172 173 171 177 179 178 170 166 172 190 172 199 182 192 216 202 196 210 200 186 200 213
Wind_Speed
14 16 16 20 12 12 15 16 14 17 17 14 19 21 22 22 24 21 19 18 14 18 27 14 20 28 19 30 28 36 31 24 44
23 22 22 15 20 21 19 20 21 22 22 23 24 25 27 28 28 29 29 46 32 32 46 34 38 34 42 54 35 30 55 25 51
38 22 21 22 22 21 17 21 20 28 32 24 30 36 29 24 31 30 30 35 50 30 26 35 56 38 39 61 46 63 54 40 63
41 20 20 36 21 26 24 25 23 17 30 28 31 34 43 35 30 21 26 20 42 55 40 35 61 62 61 42 61 63 51 57 45
27 32 45 32 29 34 30 40 28 29 32 30 24 36 47 34 36 36 16 18 24 25 23 40 29 27 38 41 42 44 37 13 22
46 30 34 46 45 35 35 37 26 44 39 28 48 32 45 34 53 40 56 24 22 58 59 33 37 42 48 50 54 28 18 35 53
48 49 30 28 27 32 35 39 30 41 44 49 23 38 52 41 32 48 33 56 56 57 37 43 47 50 54 59 60 58 58 60 60
43 51 53 29 33 44 46 42 52 53 39 53 55 56 29 54 51 50 53 54 54 39 45 50 53 60 59 59 54 58 65 56 58
54 55 56 39 43 27 39 38 47 36 46 50 45 27 54 51 47 47 50 51 44 46 57 55 58 58 53 54 57 65 69 70 44
57 56 57 56 52 47 46 48 49 55 50 57 52 48 50 47 36 43 40 51 47 52 53 56 58 51 53 64 64 55 51 43 41
57 48 57 53 49 46 51 41 56 53 47 51 46 47 46 48 43 47 50 48 51 51 58 58 50 53 60 63 71 48 51 38 41
56 59 52 33 51 49 48 49 48 40 48 47 47 46 43 47 46 54 49 51 50 57 56 56 54 56 64 67 49 51 49 50 43
44 48 49 49 48 48 46 45 47 48 19 47 45 45 46 53 58 50 52 48 57 58 61 53 57 59 44 49 43 41 47 46 40
42 43 45 44 43 44 42 46 49 38 46 35 46 49 56 50 53 49 44 56 58 59 53 62 64 67 50 40 48 40 44 44 41
47 47 47 46 45 36 40 34 34 43 49 50 55 51 60 47 51 52 55 56 58 52 64 66 60 56 48 49 48 39 38 41 40
50 51 48 50 35 38 47 45 52 49 54 58 43 62 46 51 53 54 57 57 56 57 64 66 60 50 45 47 47 44 44 39 39
31 39 53 51 41 41 53 54 45 59 56 46 47 54 55 55 56 57 59 57 57 55 65 67 53 45 49 48 48 46 44 41 39
53 55 36 43 55 55 55 56 55 49 49 50 52 59 61 59 60 60 59 56 58 62 66 64 41 48 49 51 48 46 42 41 42
56 57 40 42 54 55 55 64 56 55 56 56 58 61 61 63 63 62 57 59 57 67 65 60 48 50 51 52 50 43 51 51 41
40 44 51 55 56 58 59 57 57 57 58 60 62 63 64 64 64 59 58 63 67 61 65 60 55 50 50 50 51 51 47 55 52
Wind_Direction
257 247 246 230 282 290 271 270 296 276 287 303 302 282 281 283 290 287 305 307 314 311 300 317 308 299 312 298 301 295 297 299 282
240 237 240 259 244 248 262 269 266 267 265 273 275 274 275 276 276 280 283 282 287 287 286 286 294 293 294 291 293 303 276 295 280
268 249 250 249 251 256 275 268 274 279 284 274 284 289 279 286 276 284 290 285 287 287 293 287 293 290 285 285 287 282 280 282 279
268 254 262 271 264 260 268 272 273 283 282 275 275 289 292 278 285 300 296 301 287 287 287 291 288 289 289 292 285 284 278 278 282
252 263 274 264 262 278 264 283 274 274 279 274 288 290 288 286 280 286 302 308 302 300 291 296 292 291 293 291 288 283 280 275 288
272 256 267 276 277 274 274 281 276 286 284 283 291 292 285 285 295 292 292 301 293 290 291 291 289 286 285 284 282 288 265 293 286
271 271 261 260 266 269 277 282 274 283 285 286 296 291 287 281 298 295 305 293 292 293 295 291 291 289 287 292 297 297 295 292 293
273 272 274 263 265 283 287 283 286 285 282 296 292 287 287 293 297 298 295 295 294 303 298 293 293 298 301 302 300 297 296 298 304
271 272 275 270 277 288 272 277 291 280 288 287 281 302 295 299 301 297 297 297 302 300 298 297 301 303 305 304 301 299 300 304 311
270 274 276 279 283 287 287 287 291 290 284 287 290 297 299 300 302 301 309 299 302 302 296 303 306 307 304 306 305 318 316 317 311
270 270 275 279 280 281 284 281 292 285 289 289 295 298 300 298 303 301 299 305 302 298 302 306 309 303 308 310 315 320 321 319 315
274 272 278 278 282 284 285 284 288 284 292 297 299 299 301 301 304 297 301 300 296 305 309 310 311 309 311 319 321 320 320 321 319
272 274 276 278 281 284 287 291 289 291 288 295 293 299 303 299 295 302 300 295 306 309 310 300 311 312 300 325 326 324 322 322 325
270 274 277 280 284 287 285 286 289 299 300 310 300 302 294 296 301 299 303 305 308 310 304 312 316 319 328 332 310 327 323 323 326
272 275 277 281 284 293 293 304 315 305 294 300 297 296 298 300 297 300 305 307 309 310 315 315 315 325 329 330 328 329 326 326 329
271 275 278 281 295 295 287 299 289 294 296 295 299 296 298 296 298 305 305 308 310 313 314 319 323 324 327 329 329 330 333 331 332
285 281 277 282 292 297 286 287 292 292 293 293 295 294 295 299 298 303 304 308 311 312 317 321 319 323 324 326 327 330 331 332 333
272 275 292 291 281 283 285 287 291 294 292 293 294 295 298 303 302 304 307 310 313 313 319 322 323 322 323 324 326 327 326 327 329
271 273 292 292 280 285 286 284 288 290 291 292 293 295 299 300 304 304 309 311 311 317 321 318 320 321 323 322 323 317 324 323 325
285 286 283 280 281 281 285 286 288 289 290 291 292 294 296 299 302 303 309 310 311 309 316 318 318 317 321 320 315 318 317 320 321